Location: Willow Grove Park
(46.1754°N, 123.0885°W)
Time: 02:50:32
(UTC-07:00)

N. Korean satellite - Visible Passes

Search period start: 19 October 2019 00:00
Search period end: 29 October 2019 00:00
Orbit: 455 x 508 km, 97.2° (Epoch: 18 October)

Date Brightness Start Highest point End Pass type
(mag) Time Alt. Az. Time Alt. Az. Time Alt. Az.
19 Oct 10.2 06:07:22 10° ENE 06:09:16 14° E 06:11:10 10° ESE visible
20 Oct 10.3 19:27:32 10° WSW 19:28:58 12° W 19:30:23 10° WNW visible
21 Oct 8.1 06:48:51 10° NNE 06:52:18 42° E 06:55:48 10° S visible
21 Oct 9.3 19:00:38 10° SSW 19:03:26 23° W 19:06:18 10° NW visible
22 Oct 9.5 06:24:01 10° NE 06:26:53 21° E 06:29:46 10° SE visible
23 Oct 10.4 06:00:09 10° ENE 06:01:23 11° E 06:02:36 10° ESE visible
24 Oct 7.0 07:06:10 10° NNE 07:09:49 71° ESE 07:13:29 10° S visible
24 Oct 10.0 19:18:59 10° SW 19:21:01 15° W 19:23:05 10° NW visible
25 Oct 8.6 06:41:05 10° NNE 06:44:27 34° E 06:47:50 10° SSE visible
25 Oct 8.9 18:52:29 10° SSW 18:55:31 29° W 18:58:37 10° NNW visible
26 Oct 9.8 06:16:24 10° NE 06:19:00 18° E 06:21:35 10° SE visible
28 Oct 7.4 06:58:18 10° NNE 07:01:56 57° E 07:05:35 10° S visible
28 Oct 9.7 19:10:34 10° SW 19:13:03 18° W 19:15:35 10° NW visible
